Find Kosmos-1961

NORAD ID: 19344 Int'l Des: 1988-066 Owner: UNKS Country: SU operational
HEOCIRCULARGSO

リアルタイム位置

3D地球を読み込み中...

Kosmos-1961について

説明を読み込み中...

次回通過

Passes for default location (London). Set your location on the main map for personalized predictions.

高度履歴

Loading altitude history...

軌道要素

1 19344U 88066A 26105.81871632 -.00000151 00000-0 00000+0 0 9996
2 19344 11.5439 330.1307 0002353 145.4507 103.3871 1.00270863138385
Epoch: Apr 15, 2026 • Age: 16 hours

現在のステータス

高度 35776.2 km
速度 3.08 km/s
衛星直下点 8.53°N, 80.84°E
打ち上げ日 Aug 1, 1988
運用期間 37.7 years
タイプ other

技術仕様

分類 Payload
質量 2100.00 kg
乾燥質量 1900.00 kg
総質量 2100.00 kg
長さ 5.50 m
直径 2.50 m
スパン 9.00 m
形状 Cyl + 2 Pan + Plate
製造者 NPOPM
バスタイプ Geizer
フェーズステータス In Orbit
所有者/国 UNKS/SU

Most Searched